Location: *
(48.7358°N, 0.3111°E)
Time: 16:59:18
(UTC+00:00)

Cosmos 2184 Rocket - Pass Details

Date: 22 October 2019
Orbit: 960 x 1001 km, 82.9° (Epoch: 16 November)

Event Time Altitude Azimuth Distance (km) Brightness Sun altitude
Exits shadow 04:04:20 13° 189° (S) 2,472 5.9 -24.4°
Maximum altitude 04:09:55 86° 277° (W) 990 3.9 -23.5°
Drops below altitude 10° 04:16:17 10° 9° (N) 2,760 6.6 -22.5°
Sets 04:18:49 0° 10° (N) 3,718 7.3 -22.1°
